Weather History for New Ulm, MN

Change the Weather History Date:

Wednesday, September 26, 2012

  Actual Average Record
Temperature  
Mean Temperature 50 °F -  
Max Temperature 66 °F 72 °F 91 °F (1974)
Min Temperature 33 °F 44 °F 24 °F (1984)
Degree Days  
Heating Degree Days 16    
Moisture  
Dew Point 32 °F    
Average Humidity 51    
Maximum Humidity 87    
Minimum Humidity 23    
Precipitation  
Precipitation 0.00 in - - ()
Sea Level Pressure  
Sea Level Pressure 30.10 in    
Wind  
Wind Speed 6 mph (North)    
Max Wind Speed 13 mph    
Max Gust Speed 16 mph    
Visibility 10 miles    
Events      
Averages and records for this station are not official NWS values.
T = Trace of Precipitation, MM = Missing Value Source: NWS Daily Summary

Daily Weather History Graph

Daily Weather History Graph

Search for Another Location

Airport:

Trip Planner

Search our weather history database for the weather conditions in past years. The results will help you decide how hot, cold, wet, or windy it might be!

Date:

Astronomy

Sep. 26, 2012 Rise Set
Actual Time 7:10 AM CDT 7:07 PM CDT
Civil Twilight 6:41 AM CDT 7:35 PM CDT
Nautical Twilight 6:07 AM CDT 8:09 PM CDT
Astronomical Twilight 5:33 AM CDT 8:43 PM CDT
Moon 5:12 PM CDT 3:30 AM CDT
Length of Visible Light 12h 54m
Length of Day
11h 56m
Waxing Gibbous, 88% of the Moon is Illuminated
Sep 26
Waxing Gibbous
Sep 29
Full
Oct 8
Last Quarter
Oct 15
New
Oct 21
First Quarter

Hourly Weather History & Observations

Time (CDT) Temp. Windchill Dew Point Humidity Pressure Visibility Wind Dir Wind Speed Gust Speed Precip Events Conditions
12:33 AM 50.0 °F - 30.2 °F 47% 29.95 in 10.0 mi NNW 12.7 mph - N/A   Clear
12:53 AM 50.0 °F - 30.2 °F 47% 29.96 in 10.0 mi NNW 10.4 mph - N/A   Clear
1:13 AM 48.2 °F - 32.0 °F 54% 29.96 in 10.0 mi NNW 9.2 mph - N/A   Clear
1:33 AM 44.6 °F 42.2 °F 30.2 °F 57% 29.98 in 10.0 mi NW 4.6 mph - N/A   Clear
1:53 AM 46.4 °F - 32.0 °F 57% 29.99 in 10.0 mi Calm Calm - N/A   Clear
2:13 AM 42.8 °F 40.1 °F 30.2 °F 61% 29.99 in 10.0 mi WNW 4.6 mph - N/A   Clear
2:33 AM 39.2 °F 35.9 °F 30.2 °F 70% 30.00 in 10.0 mi West 4.6 mph - N/A   Clear
3:12 AM 39.2 °F 34.2 °F 32.0 °F 75% 29.99 in 10.0 mi NW 6.9 mph - N/A   Clear
3:33 AM 42.8 °F 40.1 °F 33.8 °F 70% 30.00 in 10.0 mi NW 4.6 mph - N/A   Clear
3:53 AM 42.8 °F 41.1 °F 33.8 °F 70% 30.02 in 10.0 mi WNW 3.5 mph - N/A   Clear
4:13 AM 39.2 °F 35.9 °F 30.2 °F 70% 30.03 in 10.0 mi West 4.6 mph - N/A   Clear
4:33 AM 37.4 °F 32.8 °F 30.2 °F 75% 30.03 in 10.0 mi WNW 5.8 mph - N/A   Clear
4:53 AM 37.4 °F 34.9 °F 30.2 °F 75% 30.02 in 10.0 mi West 3.5 mph - N/A   Clear
5:13 AM 37.4 °F 32.1 °F 30.2 °F 75% 30.03 in 10.0 mi West 6.9 mph - N/A   Clear
5:33 AM 35.6 °F 30.7 °F 30.2 °F 81% 30.03 in 10.0 mi NW 5.8 mph - N/A   Clear
5:53 AM 33.8 °F 30.8 °F 28.4 °F 81% 30.03 in 10.0 mi NW 3.5 mph - N/A   Clear
6:13 AM 33.8 °F 30.8 °F 28.4 °F 81% 30.04 in 10.0 mi NW 3.5 mph - N/A   Clear
6:33 AM 35.6 °F 32.8 °F 30.2 °F 81% 30.05 in 10.0 mi WNW 3.5 mph - N/A   Clear
6:53 AM 33.8 °F 28.6 °F 30.2 °F 87% 30.06 in 10.0 mi WNW 5.8 mph - N/A   Clear
7:13 AM 35.6 °F 32.8 °F 30.2 °F 81% 30.06 in 10.0 mi West 3.5 mph - N/A   Clear
7:33 AM 33.8 °F 29.6 °F 30.2 °F 87% 30.07 in 10.0 mi WNW 4.6 mph - N/A   Clear
7:53 AM 35.6 °F 30.7 °F 32.0 °F 87% 30.07 in 10.0 mi NW 5.8 mph - N/A   Clear
8:13 AM 37.4 °F 34.9 °F 33.8 °F 87% 30.08 in 10.0 mi NW 3.5 mph - N/A   Clear
8:33 AM 42.8 °F 40.1 °F 35.6 °F 76% 30.08 in 10.0 mi NNW 4.6 mph - N/A   Clear
8:52 AM 44.6 °F 43.1 °F 35.6 °F 71% 30.09 in 10.0 mi North 3.5 mph - N/A   Clear
9:13 AM 44.6 °F - 35.6 °F 71% 30.10 in 10.0 mi Calm Calm - N/A   Clear
9:33 AM 46.4 °F 44.3 °F 37.4 °F 71% 30.10 in 10.0 mi North 4.6 mph - N/A   Clear
9:53 AM 48.2 °F - 37.4 °F 66% 30.11 in 10.0 mi North 3.5 mph - N/A   Clear
10:13 AM 51.8 °F - 39.2 °F 62% 30.12 in 10.0 mi North 3.5 mph - N/A   Clear
10:32 AM 53.6 °F - 39.2 °F 58% 30.12 in 10.0 mi North 3.5 mph - N/A   Clear
11:13 AM 57.2 °F - 39.2 °F 51% 30.13 in 10.0 mi North 5.8 mph - N/A   Clear
11:33 AM 59.0 °F - 37.4 °F 45% 30.12 in 10.0 mi North 5.8 mph - N/A   Clear
11:53 AM 60.8 °F - 37.4 °F 42% 30.13 in 10.0 mi North 5.8 mph - N/A   Clear
12:13 PM 62.6 °F - 35.6 °F 37% 30.13 in 10.0 mi North 9.2 mph - N/A   Clear
12:33 PM 62.6 °F - 33.8 °F 34% 30.12 in 10.0 mi North 6.9 mph - N/A   Clear
12:53 PM 62.6 °F - 33.8 °F 34% 30.12 in 10.0 mi North 10.4 mph 16.1 mph N/A   Clear
1:13 PM 62.6 °F - 32.0 °F 32% 30.12 in 10.0 mi North 5.8 mph - N/A   Clear
1:32 PM 64.4 °F - 32.0 °F 30% 30.12 in 10.0 mi NNW 8.1 mph - N/A   Clear
1:53 PM 64.4 °F - 32.0 °F 30% 30.12 in 10.0 mi North 3.5 mph - N/A   Clear
2:13 PM 64.4 °F - 30.2 °F 28% 30.12 in 10.0 mi NE 6.9 mph - N/A   Clear
2:32 PM 64.4 °F - 30.2 °F 28% 30.11 in 10.0 mi North 6.9 mph - N/A   Clear
2:53 PM 66.2 °F - 30.2 °F 26% 30.10 in 10.0 mi NNW 8.1 mph - N/A   Clear
3:13 PM 64.4 °F - 30.2 °F 28% 30.10 in 10.0 mi North 6.9 mph - N/A   Clear
3:33 PM 66.2 °F - 28.4 °F 24% 30.11 in 10.0 mi NNE 9.2 mph 16.1 mph N/A   Clear
3:53 PM 66.2 °F - 28.4 °F 24% 30.11 in 10.0 mi NNE 8.1 mph - N/A   Clear
4:13 PM 66.2 °F - 28.4 °F 24% 30.11 in 10.0 mi North 6.9 mph - N/A   Clear
4:33 PM 66.2 °F - 26.6 °F 23% 30.11 in 10.0 mi North 5.8 mph - N/A   Clear
4:53 PM 66.2 °F - 26.6 °F 23% 30.11 in 10.0 mi North 5.8 mph - N/A   Clear
5:13 PM 66.2 °F - 28.4 °F 24% 30.12 in 10.0 mi NNE 8.1 mph - N/A   Clear
5:33 PM 64.4 °F - 28.4 °F 26% 30.13 in 10.0 mi ENE 6.9 mph - N/A   Clear
5:53 PM 64.4 °F - 28.4 °F 26% 30.13 in 10.0 mi NE 8.1 mph - N/A   Clear
6:13 PM 64.4 °F - 28.4 °F 26% 30.14 in 10.0 mi ENE 4.6 mph - N/A   Clear
6:33 PM 62.6 °F - 30.2 °F 30% 30.14 in 10.0 mi NE 4.6 mph - N/A   Clear
6:53 PM 60.8 °F - 30.2 °F 31% 30.15 in 10.0 mi NE 3.5 mph - N/A   Clear
7:33 PM 59.0 °F - 30.2 °F 34% 30.16 in 10.0 mi Calm Calm - N/A   Clear
7:53 PM 59.0 °F - 32.0 °F 36% 30.16 in 10.0 mi Calm Calm - N/A   Clear
8:12 PM 57.2 °F - 32.0 °F 38% 30.17 in 10.0 mi Calm Calm - N/A   Clear
8:33 PM 57.2 °F - 32.0 °F 38% 30.17 in 10.0 mi ENE 3.5 mph - N/A   Clear
8:53 PM 57.2 °F - 32.0 °F 38% 30.18 in 10.0 mi Calm Calm - N/A   Clear
9:12 PM 55.4 °F - 32.0 °F 41% 30.18 in 10.0 mi East 3.5 mph - N/A   Clear
9:33 PM 55.4 °F - 33.8 °F 44% 30.19 in 10.0 mi East 3.5 mph - N/A   Clear
9:53 PM 55.4 °F - 33.8 °F 44% 30.19 in 10.0 mi East 3.5 mph - N/A   Clear
10:13 PM 53.6 °F - 33.8 °F 47% 30.19 in 10.0 mi East 4.6 mph - N/A   Clear
10:33 PM 53.6 °F - 33.8 °F 47% 30.20 in 10.0 mi East 4.6 mph - N/A   Clear
10:53 PM 53.6 °F - 33.8 °F 47% 30.20 in 10.0 mi East 3.5 mph - N/A   Clear
11:13 PM 53.6 °F - 33.8 °F 47% 30.20 in 10.0 mi East 4.6 mph - N/A   Clear
11:33 PM 53.6 °F - 33.8 °F 47% 30.20 in 10.0 mi East 4.6 mph - N/A   Clear
11:53 PM 51.8 °F - 33.8 °F 50% 30.20 in 10.0 mi East 4.6 mph - N/A   Clear